Location: Cactus School
(34.5700°N, 118.0931°W)
Time: 01:19:01
(UTC-07:00)

Courier 1B - Pass Details

Date: 29 April 2024
Orbit: 962 x 1208 km, 28.3° (Epoch: 23 May)

Event Time Altitude Azimuth Distance (km) Brightness Sun altitude
Rises 21:28:16 0° 225° (SW) 4,029 10.8 -21.2°
Reaches altitude 10° 21:31:27 10° 214° (SW) 3,095 10.1 -21.7°
Enters shadow 21:36:58 29° 170° (S) 2,048 8.8 -22.6°
